Preview of NWS' New Version of Forecast
This preview is not operational and should not be used for support decisions.

Regional Weather Roundup (RWR)

Issued by National Weather Service (NWS)

                            
000
ASUS45 KABQ 161501
RWRNM 
NEW MEXICO REGIONAL WEATHER ROUNDUP
NATIONAL WEATHER SERVICE ALBUQUERQUE NM
900 AM MDT SUN JUN 16 2019

NOTE: "FAIR" MEANS FEW OR NO CLOUDS BELOW 12,000 FEET AGL WITH NO
       SIGNIFICANT WEATHER OR OBSTRUCTIONS TO VISION.

      THIS PRODUCT IS RELEASED AS TWO VERSIONS.  ONE VERSION NEAR
      THE TOP OF THE HOUR CONTAINING PRELIMINARY DATA FROM ALBUQUERQUE
      AND OTHER STATIONS.  A FINAL VERSION WITH ADDITIONAL DATA IS 
      ISSUED ABOUT 10 MINUTES AFTER THE HOUR.
 
NMZ501-503-504-510>518-161600-
NORTHWEST PLATEAU/NORTHCENTRAL MOUNTAINS
  
CITY           SKY/WX    TMP DP  RH WIND       PRES   REMARKS
FARMINGTON     FAIR      66  41  40 E12       30.10S                  
LOS ALAMOS       N/A     60  44  54 E6        30.22S                  
SANTA FE       FAIR      66  43  43 NE8       30.16S                  
TAOS           FAIR      60  40  47 VRB7      30.22S                  
ANGEL FIRE       N/A     50  41  71 CALM      30.28F                  

$$
NMZ402-403-502-505>509-161600-
WESTCENTRAL MOUNTAINS/SOUTHWEST MOUNTAINS
  
CITY           SKY/WX    TMP DP  RH WIND       PRES   REMARKS
GALLUP         FAIR      61  41  47 CALM      30.16R                  
GRANTS         FAIR      64  35  34 SE5       30.18S                  
SILVER CITY    FAIR      78  29  16 W7        30.10R                  

$$
NMZ407-409-411-412-161600-
SOUTHERN DESERTS
  
CITY           SKY/WX    TMP DP  RH WIND       PRES   REMARKS
DEMING         FAIR      74  29  19 SW5       30.03S                  
LAS CRUCES     FAIR      76  38  24 CALM      30.03S                  
HOLLOMAN AFB   FAIR      77  39  25 CALM      30.02R                  
ALAMOGORDO     FAIR      75  36  23 SW5       30.01S                  
T OR C         FAIR      80  35  19 NE7       30.04R                  

$$
NMZ519>523-161600-
CENTRAL VALLEYS/CENTRAL HIGHLANDS
  
CITY           SKY/WX    TMP DP  RH WIND       PRES   REMARKS
ALBUQUERQUE    FAIR      66  46  48 N8        30.10F                  
DOUBLE EAGLE   MOSUNNY   66  45  45 N7        30.14R                  
MORIARTY ARPT  FAIR      67  39  35 S5        30.17F                  
CLINES CORNERS FAIR      64  40  41 E8        30.21S                  
BELEN          FAIR      68  41  37 W5        30.10S                  
SOCORRO        FAIR      72  41  31 N10       30.07F                  

$$
NMZ524>526-539-540-161600-
SOUTHCENTRAL MOUNTAINS
  
CITY           SKY/WX    TMP DP  RH WIND       PRES   REMARKS
RUIDOSO        FAIR      64  39  39 E6        30.20F                  

$$
NMZ527>531-161600-
NORTHEAST HIGHLANDS/NORTHEAST PLAINS
  
CITY           SKY/WX    TMP DP  RH WIND       PRES   REMARKS
LAS VEGAS      FAIR      62  42  47 N7        30.20R                  
RATON          FAIR      59  47  64 CALM      30.17R                  
CLAYTON        FAIR      66  52  60 N13       30.08S                  

$$
NMZ532>537-161600-
EASTCENTRAL PLAINS
  
CITY           SKY/WX    TMP DP  RH WIND       PRES   REMARKS
SANTA ROSA     FAIR      70  45  40 NE7       30.10S                  
TUCUMCARI      FAIR      68  53  58 NE5       30.04S                  
CANNON AFB     NOT AVBL                                               
CLOVIS AIRPORT FAIR      65  54  67 NE8       30.07R                  

$$
NMZ028-029-538-161600-
SOUTHEAST PLAINS
  
CITY           SKY/WX    TMP DP  RH WIND       PRES   REMARKS
ROSWELL        FAIR      76  47  35 N15       30.01S                  
ARTESIA        FAIR      73  50  43 N20       30.02S                  
CARLSBAD       FAIR      74  48  39 N18       29.97R                  
HOBBS          SUNNY     75  52  43 NE14      29.98S                  


$$